{"data":{"norad_id":56063,"epoch":"2026-09-20T04:34:43.372992Z","epoch_age_seconds":44846,"freshness":"FRESH","line1":"1 56063U 23043T   26263.19077978  .00000110  00000+0  23442-3 0  9998","line2":"2 56063  87.9287 225.0679 0002258  81.5961 278.5429 13.21826114170825","mean_motion":13.21826114,"eccentricity":0.0002258,"inclination_deg":87.9287,"raan_deg":225.0679,"arg_perigee_deg":81.5961,"mean_anomaly_deg":278.5429,"bstar":0.00023442,"rev_number":17082,"period_min":108.94019907372,"perigee_km":1176.0468139857,"apogee_km":1179.4590538798,"semimajor_km":7555.8899339328,"source":"CELESTRAK","updated_at":"2026-09-20T09:00:44.789933Z"}}